| time (UTC) | temp F | wind direction | speed knots | gust knots | rain 1hr in | rain 24hr in | rain mn in | humidity % | barometer mb |
| 20260906064742 | 59 | 263 | 2.6 | 5.2 | 0.00 | 0.03 | 0.03 | 72 | 1024.0 |
| 20260906063600 | 59 | 263 | 1.7 | 7.0 | 0.00 | 0.03 | 0.03 | 71 | 1023.8 |
| 20260906063109 | 59 | 263 | 1.7 | 7.0 | 0.00 | 0.03 | 0.03 | 72 | 1023.8 |
| 20260906062555 | 59 | 263 | 1.7 | 7.0 | 0.00 | 0.03 | 0.03 | 71 | 1023.8 |
| 20260906062058 | 59 | 263 | 2.6 | 7.0 | 0.00 | 0.03 | 0.03 | 73 | 1023.8 |
| 20260906061553 | 59 | 263 | 2.6 | 7.0 | 0.00 | 0.03 | 0.03 | 72 | 1023.8 |
| 20260906061047 | 60 | 263 | 2.6 | 7.0 | 0.00 | 0.03 | 0.03 | 73 | 1023.8 |
| 20260906060553 | 60 | 263 | 2.6 | 7.0 | 0.00 | 0.03 | 0.03 | 73 | 1023.8 |
| 20260906060050 | 60 | 263 | 2.6 | 5.2 | 0.00 | 0.03 | 0.03 | 74 | 1023.8 |
| 20260906055600 | 60 | 263 | 2.6 | 8.7 | 0.00 | 0.03 | 0.03 | 74 | 1023.7 |
| 20260906055043 | 60 | 263 | 1.7 | 8.7 | 0.00 | 0.03 | 0.03 | 75 | 1023.7 |
| 20260906054536 | 60 | 263 | 2.6 | 8.7 | 0.00 | 0.03 | 0.03 | 75 | 1023.7 |
| 20260906053412 | 60 | 263 | 3.5 | 8.7 | 0.00 | 0.03 | 0.03 | 74 | 1023.4 |
| 20260906052908 | 60 | 263 | 1.7 | 8.7 | 0.00 | 0.03 | 0.03 | 75 | 1023.4 |
| 20260906052416 | 60 | 263 | 2.6 | 8.7 | 0.00 | 0.03 | 0.03 | 76 | 1023.3 |
| 20260906051917 | 60 | 263 | 3.5 | 8.7 | 0.00 | 0.03 | 0.03 | 76 | 1023.3 |
| 20260906051425 | 60 | 263 | 2.6 | 7.8 | 0.00 | 0.03 | 0.03 | 76 | 1023.3 |
| 20260906050908 | 59 | 263 | 2.6 | 7.8 | 0.00 | 0.03 | 0.03 | 76 | 1023.3 |
| 20260906050410 | 59 | 263 | 2.6 | 7.0 | 0.00 | 0.03 | 0.03 | 76 | 1023.3 |
| 20260906045906 | 59 | 263 | 2.6 | 7.0 | 0.00 | 0.03 | 0.03 | 77 | 1023.2 |
| 20260906045404 | 59 | 263 | 2.6 | 7.0 | 0.00 | 0.03 | 0.03 | 77 | 1023.2 |
| 20260906044900 | 59 | 263 | 2.6 | 7.0 | 0.00 | 0.03 | 0.03 | 78 | 1023.2 |
| 20260906044407 | 59 | 263 | 2.6 | 7.0 | 0.00 | 0.03 | 0.03 | 78 | 1023.2 |
| 20260906043251 | 59 | 263 | 2.6 | 7.0 | 0.00 | 0.03 | 0.03 | 78 | 1023.3 |
| 20260906042759 | 59 | 263 | 3.5 | 8.7 | 0.00 | 0.03 | 0.03 | 79 | 1023.4 |
| 20260906041622 | 59 | 263 | 4.3 | 8.7 | 0.00 | 0.03 | 0.03 | 79 | 1023.4 |
| 20260906041132 | 59 | 263 | 3.5 | 7.8 | 0.00 | 0.03 | 0.03 | 79 | 1023.5 |
| 20260906040633 | 59 | 263 | 2.6 | 7.8 | 0.00 | 0.04 | 0.03 | 79 | 1023.5 |
| 20260906035518 | 59 | 263 | 3.5 | 7.8 | 0.00 | 0.04 | 0.03 | 80 | 1023.8 |
| 20260906035016 | 59 | 263 | 3.5 | 7.8 | 0.00 | 0.04 | 0.03 | 80 | 1023.8 |
| 20260906033838 | 58 | 263 | 3.5 | 7.8 | 0.00 | 0.04 | 0.03 | 80 | 1023.8 |
| 20260906033333 | 58 | 263 | 3.5 | 7.8 | 0.00 | 0.04 | 0.03 | 80 | 1023.8 |
| 20260906032825 | 58 | 263 | 3.5 | 7.8 | 0.00 | 0.04 | 0.03 | 79 | 1023.8 |
| 20260906032306 | 58 | 263 | 2.6 | 8.7 | 0.00 | 0.04 | 0.03 | 79 | 1023.8 |
| 20260906031814 | 58 | 263 | 2.6 | 8.7 | 0.00 | 0.04 | 0.03 | 79 | 1023.8 |
| 20260906031259 | 58 | 263 | 3.5 | 8.7 | 0.00 | 0.04 | 0.03 | 79 | 1023.9 |
| 20260906030801 | 58 | 263 | 3.5 | 8.7 | 0.00 | 0.04 | 0.03 | 79 | 1023.9 |
| 20260906030258 | 58 | 263 | 2.6 | 7.8 | 0.00 | 0.04 | 0.03 | 79 | 1023.9 |
| 20260906025803 | 58 | 263 | 2.6 | 7.8 | 0.00 | 0.04 | 0.03 | 79 | 1024.0 |
| 20260906025259 | 59 | 263 | 2.6 | 7.0 | 0.00 | 0.04 | 0.03 | 79 | 1024.0 |
| 20260906024805 | 59 | 263 | 1.7 | 7.0 | 0.00 | 0.04 | 0.03 | 78 | 1024.0 |
| 20260906024256 | 59 | 263 | 2.6 | 8.7 | 0.00 | 0.04 | 0.03 | 77 | 1023.9 |
| 20260906023804 | 60 | 263 | 2.6 | 8.7 | 0.00 | 0.04 | 0.03 | 76 | 1023.9 |
| 20260906023253 | 60 | 263 | 3.5 | 8.7 | 0.00 | 0.04 | 0.03 | 76 | 1023.9 |
| 20260906022745 | 61 | 263 | 3.5 | 8.7 | 0.00 | 0.04 | 0.03 | 76 | 1024.1 |
| 20260906022245 | 60 | 263 | 1.7 | 7.8 | 0.00 | 0.04 | 0.03 | 78 | 1024.1 |
| 20260906021113 | 60 | 263 | 2.6 | 7.0 | 0.00 | 0.04 | 0.03 | 77 | 1024.3 |
| 20260906020613 | 60 | 263 | 2.6 | 7.0 | 0.00 | 0.04 | 0.03 | 77 | 1024.3 |
| 20260906015443 | 59 | 263 | 2.6 | 7.0 | 0.00 | 0.04 | 0.03 | 80 | 1024.4 |
| 20260906014947 | 58 | 263 | 2.6 | 7.0 | 0.00 | 0.04 | 0.03 | 81 | 1024.4 |
| 20260906014451 | 58 | 263 | 2.6 | 7.0 | 0.00 | 0.04 | 0.03 | 81 | 1024.4 |
| 20260906013317 | 59 | 263 | 1.7 | 7.0 | 0.00 | 0.04 | 0.03 | 85 | 1024.3 |
| 20260906012812 | 58 | 263 | 0.9 | 7.0 | 0.00 | 0.04 | 0.03 | 85 | 1024.4 |
| 20260906012307 | 57 | 263 | 0.0 | 3.5 | 0.00 | 0.04 | 0.03 | 88 | 1024.4 |
| 20260906011751 | 56 | 263 | 0.9 | 3.5 | 0.00 | 0.04 | 0.03 | 87 | 1024.4 |
| 20260906011247 | 56 | 263 | 0.9 | 3.5 | 0.00 | 0.04 | 0.03 | 87 | 1024.3 |
| 20260906010736 | 56 | 263 | 0.9 | 3.5 | 0.00 | 0.04 | 0.03 | 87 | 1024.3 |
| 20260906010231 | 56 | 263 | 0.9 | 3.5 | 0.00 | 0.04 | 0.03 | 87 | 1024.3 |
| 20260906005730 | 56 | 263 | 0.9 | 3.5 | 0.00 | 0.04 | 0.03 | 88 | 1024.3 |
| 20260906004604 | 56 | 263 | 0.0 | 3.5 | 0.00 | 0.04 | 0.03 | 88 | 1024.3 |
| 20260906004044 | 56 | 263 | 0.0 | 3.5 | 0.00 | 0.04 | 0.03 | 88 | 1024.3 |
| 20260906003545 | 56 | 263 | 0.9 | 3.5 | 0.00 | 0.04 | 0.03 | 88 | 1024.3 |
| 20260906003047 | 56 | 263 | 1.7 | 5.2 | 0.00 | 0.04 | 0.03 | 88 | 1024.3 |
| 20260906002528 | 56 | 263 | 1.7 | 5.2 | 0.00 | 0.04 | 0.03 | 87 | 1024.3 |
| 20260906002016 | 56 | 263 | 1.7 | 9.6 | 0.00 | 0.04 | 0.03 | 87 | 1024.3 |
| 20260906000854 | 57 | 263 | 2.6 | 9.6 | 0.00 | 0.10 | 0.03 | 87 | 1024.3 |
| 20260906000340 | 57 | 263 | 1.7 | 9.6 | 0.00 | 0.10 | 0.03 | 88 | 1024.3 |
| 20260905235840 | 56 | 263 | 0.0 | 2.6 | 0.00 | 0.10 | 0.03 | 88 | 1024.1 |
| 20260905235337 | 55 | 263 | 0.0 | 1.7 | 0.00 | 0.10 | 0.03 | 88 | 1024.1 |
| 20260905234211 | 55 | 263 | 0.0 | 0.0 | 0.00 | 0.10 | 0.03 | 88 | 1023.9 |
| 20260905232453 | 56 | 263 | 1.7 | 5.2 | 0.00 | 0.10 | 0.03 | 87 | 1023.8 |
| 20260905231956 | 57 | 263 | 0.0 | 5.2 | 0.00 | 0.10 | 0.03 | 88 | 1023.8 |
| 20260905231436 | 57 | 263 | 0.0 | 0.9 | 0.00 | 0.10 | 0.03 | 89 | 1023.8 |
| 20260905230922 | 57 | 263 | 0.0 | 0.0 | 0.00 | 0.11 | 0.03 | 89 | 1023.5 |
| 20260905230408 | 57 | 263 | 0.0 | 0.0 | 0.00 | 0.18 | 0.03 | 90 | 1023.5 |
| 20260905225917 | 56 | 263 | 0.0 | 0.0 | 0.00 | 0.18 | 0.03 | 90 | 1023.5 |
| 20260905225413 | 56 | 263 | 0.0 | 1.7 | 0.00 | 0.18 | 0.03 | 91 | 1023.4 |
| 20260905224905 | 56 | 263 | 0.0 | 0.0 | 0.00 | 0.18 | 0.03 | 91 | 1023.4 |
| 20260905224407 | 56 | 263 | 0.0 | 0.0 | 0.00 | 0.18 | 0.03 | 91 | 1023.4 |
| 20260905223852 | 55 | 263 | 0.0 | 0.0 | 0.00 | 0.18 | 0.03 | 92 | 1023.2 |
| 20260905223341 | 55 | 263 | 0.0 | 0.0 | 0.00 | 0.18 | 0.03 | 92 | 1023.2 |
| 20260905222843 | 55 | 263 | 0.0 | 0.0 | 0.00 | 0.18 | 0.03 | 92 | 1022.8 |
| 20260905222345 | 54 | 263 | 0.0 | 0.0 | 0.00 | 0.18 | 0.03 | 91 | 1022.8 |
| 20260905221217 | 54 | 263 | 0.0 | 0.0 | 0.00 | 0.18 | 0.03 | 92 | 1022.7 |
| 20260905220727 | 53 | 263 | 0.0 | 0.0 | 0.00 | 0.18 | 0.03 | 92 | 1022.7 |
| 20260905220233 | 53 | 263 | 0.0 | 0.0 | 0.00 | 0.18 | 0.03 | 91 | 1022.7 |
| 20260905215730 | 53 | 263 | 0.0 | 0.0 | 0.00 | 0.18 | 0.03 | 91 | 1022.6 |
| 20260905215214 | 53 | 263 | 0.0 | 0.0 | 0.00 | 0.17 | 0.02 | 91 | 1022.6 |
| 20260905214718 | 53 | 263 | 0.0 | 0.0 | 0.00 | 0.17 | 0.02 | 91 | 1022.6 |
| 20260905214206 | 53 | 263 | 0.0 | 1.7 | 0.00 | 0.17 | 0.02 | 91 | 1022.3 |
| 20260905213648 | 52 | 263 | 0.0 | 0.0 | 0.00 | 0.17 | 0.02 | 91 | 1022.3 |
| 20260905213139 | 52 | 263 | 0.0 | 0.0 | 0.00 | 0.17 | 0.02 | 91 | 1022.3 |
| 20260905212635 | 52 | 263 | 0.0 | 0.0 | 0.00 | 0.17 | 0.02 | 90 | 1022.2 |
| 20260905211456 | 52 | 263 | 0.0 | 0.0 | 0.00 | 0.17 | 0.02 | 90 | 1022.2 |
| 20260905210942 | 53 | 263 | 0.0 | 0.0 | 0.00 | 0.17 | 0.02 | 90 | 1021.8 |
| 20260905210437 | 53 | 263 | 0.0 | 0.0 | 0.00 | 0.17 | 0.02 | 90 | 1021.8 |
| 20260905205945 | 53 | 263 | 0.0 | 0.0 | 0.00 | 0.17 | 0.02 | 90 | 1021.8 |
| 20260905205439 | 53 | 263 | 0.0 | 0.0 | 0.00 | 0.17 | 0.02 | 90 | 1021.7 |
| 20260905204948 | 53 | 263 | 0.0 | 0.0 | 0.00 | 0.17 | 0.02 | 90 | 1021.7 |
| 20260905204444 | 53 | 263 | 0.0 | 0.0 | 0.00 | 0.17 | 0.02 | 90 | 1021.7 |
| 20260905203928 | 53 | 263 | 0.0 | 0.0 | 0.00 | 0.17 | 0.02 | 90 | 1021.7 |
| 20260905203429 | 53 | 263 | 0.0 | 0.0 | 0.00 | 0.17 | 0.02 | 90 | 1021.7 |
| 20260905202913 | 53 | 263 | 0.0 | 0.0 | 0.00 | 0.17 | 0.02 | 90 | 1021.7 |
| 20260905202412 | 53 | 263 | 0.0 | 0.0 | 0.00 | 0.17 | 0.02 | 90 | 1021.7 |
| 20260905201900 | 53 | 263 | 0.0 | 0.0 | 0.00 | 0.17 | 0.02 | 90 | 1021.7 |
| 20260905201355 | 53 | 263 | 0.0 | 0.0 | 0.00 | 0.17 | 0.02 | 90 | 1021.5 |
| 20260905200838 | 53 | 263 | 0.0 | 0.0 | 0.00 | 0.17 | 0.02 | 90 | 1021.5 |
| 20260905200322 | 53 | 263 | 0.0 | 0.0 | 0.00 | 0.17 | 0.02 | 90 | 1021.5 |
| 20260905195202 | 53 | 263 | 0.0 | 0.0 | 0.00 | 0.17 | 0.02 | 89 | 1021.3 |
| 20260905194643 | 53 | 263 | 0.0 | 0.0 | 0.00 | 0.18 | 0.02 | 89 | 1021.3 |
| 20260905194122 | 53 | 263 | 0.0 | 0.0 | 0.00 | 0.18 | 0.02 | 90 | 1021.2 |
| 20260905193627 | 54 | 263 | 0.0 | 0.0 | 0.00 | 0.18 | 0.02 | 89 | 1021.2 |
| 20260905193131 | 54 | 263 | 0.0 | 0.9 | 0.00 | 0.18 | 0.02 | 89 | 1021.2 |
| 20260905192623 | 54 | 263 | 0.9 | 7.0 | 0.00 | 0.18 | 0.02 | 89 | 1021.2 |
| 20260905191439 | 54 | 263 | 0.0 | 2.6 | 0.00 | 0.17 | 0.01 | 89 | 1021.2 |
| 20260905190920 | 54 | 263 | 0.0 | 0.0 | 0.00 | 0.17 | 0.01 | 89 | 1021.1 |
| 20260905190414 | 54 | 263 | 0.0 | 0.0 | 0.00 | 0.17 | 0.01 | 89 | 1021.1 |
| 20260905185915 | 54 | 263 | 0.0 | 0.0 | 0.00 | 0.17 | 0.01 | 89 | 1021.1 |
| 20260905185405 | 54 | 263 | 0.0 | 0.0 | 0.00 | 0.17 | 0.01 | 89 | 1020.9 |
| 20260905184900 | 54 | 263 | 0.0 | 0.0 | 0.00 | 0.17 | 0.01 | 89 | 1020.9 |
| 20260905184351 | 54 | 263 | 0.0 | 0.0 | 0.00 | 0.17 | 0.01 | 89 | 1020.7 |
| 20260905183858 | 54 | 263 | 0.0 | 1.7 | 0.00 | 0.17 | 0.01 | 89 | 1020.7 |
| 20260905183359 | 54 | 263 | 0.0 | 1.7 | 0.00 | 0.17 | 0.01 | 89 | 1020.7 |
| 20260905182845 | 54 | 263 | 0.0 | 0.0 | 0.00 | 0.17 | 0.01 | 88 | 1020.7 |
| 20260905181718 | 54 | 263 | 0.0 | 2.6 | 0.00 | 0.16 | 0.00 | 88 | 1020.7 |
| 20260905181224 | 54 | 263 | 1.7 | 5.2 | 0.00 | 0.16 | 0.00 | 88 | 1020.7 |
| 20260905180716 | 54 | 263 | 1.7 | 5.2 | 0.00 | 0.16 | 0.00 | 88 | 1020.7 |
| 20260905180210 | 54 | 263 | 0.9 | 5.2 | 0.00 | 0.16 | 0.00 | 88 | 1020.7 |
| 20260905175715 | 55 | 263 | 1.7 | 5.2 | 0.00 | 0.16 | 0.00 | 88 | 1020.7 |
| 20260905174544 | 55 | 263 | 1.7 | 5.2 | 0.00 | 0.15 | 0.00 | 87 | 1020.7 |
| 20260905172747 | 55 | 263 | 0.9 | 7.0 | 0.00 | 0.15 | 0.00 | 87 | 1020.9 |
| 20260905172254 | 55 | 263 | 0.9 | 7.0 | 0.00 | 0.15 | 0.00 | 87 | 1020.9 |
| 20260905171127 | 55 | 263 | 2.6 | 7.0 | 0.00 | 0.15 | 0.00 | 87 | 1021.1 |
| 20260905170018 | 55 | 263 | 0.9 | 5.2 | 0.00 | 0.15 | 0.00 | 87 | 1021.1 |
| 20260905165513 | 55 | 263 | 1.7 | 5.2 | 0.00 | 0.15 | 0.00 | 87 | 1021.1 |
| 20260905164346 | 55 | 263 | 2.6 | 7.0 | 0.00 | 0.15 | 0.00 | 86 | 1021.1 |
| 20260905163832 | 55 | 263 | 2.6 | 7.8 | 0.00 | 0.15 | 0.00 | 86 | 1021.1 |
| 20260905163334 | 55 | 263 | 2.6 | 7.8 | 0.00 | 0.15 | 0.00 | 86 | 1021.1 |
| 20260905162831 | 55 | 263 | 2.6 | 7.8 | 0.00 | 0.15 | 0.00 | 86 | 1021.1 |
| 20260905162331 | 55 | 263 | 1.7 | 7.8 | 0.00 | 0.15 | 0.00 | 86 | 1021.1 |
| 20260905161143 | 55 | 263 | 1.7 | 5.2 | 0.00 | 0.15 | 0.00 | 85 | 1021.2 |
| 20260905160629 | 55 | 263 | 1.7 | 4.3 | 0.00 | 0.15 | 0.00 | 85 | 1021.2 |
| 20260905160117 | 55 | 263 | 0.9 | 4.3 | 0.00 | 0.15 | 0.00 | 85 | 1021.2 |
| 20260905155604 | 55 | 263 | 0.9 | 5.2 | 0.00 | 0.15 | 0.00 | 84 | 1021.2 |
| 20260905155050 | 56 | 263 | 1.7 | 5.2 | 0.00 | 0.15 | 0.00 | 84 | 1021.2 |
| 20260905153951 | 56 | 263 | 1.7 | 5.2 | 0.00 | 0.15 | 0.00 | 83 | 1021.1 |
| 20260905153500 | 56 | 263 | 1.7 | 5.2 | 0.00 | 0.15 | 0.00 | 83 | 1021.1 |
| 20260905152955 | 56 | 263 | 1.7 | 5.2 | 0.00 | 0.15 | 0.00 | 82 | 1021.1 |
| 20260905152502 | 56 | 263 | 1.7 | 5.2 | 0.00 | 0.15 | 0.00 | 82 | 1021.1 |
| 20260905151338 | 56 | 263 | 0.9 | 4.3 | 0.00 | 0.15 | 0.00 | 80 | 1021.1 |
| 20260905150822 | 56 | 263 | 0.0 | 5.2 | 0.00 | 0.15 | 0.00 | 80 | 1021.1 |
| 20260905150320 | 56 | 263 | 0.9 | 5.2 | 0.00 | 0.15 | 0.00 | 80 | 1021.1 |
| 20260905145823 | 56 | 263 | 1.7 | 9.6 | 0.00 | 0.15 | 0.00 | 79 | 1021.1 |
| 20260905145306 | 56 | 263 | 2.6 | 9.6 | 0.00 | 0.15 | 0.00 | 79 | 1021.1 |
| 20260905144757 | 56 | 263 | 2.6 | 9.6 | 0.00 | 0.15 | 0.00 | 79 | 1021.1 |
| 20260905144245 | 56 | 263 | 1.7 | 9.6 | 0.00 | 0.15 | 0.00 | 79 | 1021.0 |
| 20260905143115 | 56 | 263 | 1.7 | 7.0 | 0.00 | 0.15 | 0.00 | 79 | 1021.0 |
| 20260905142618 | 56 | 263 | 2.6 | 9.6 | 0.00 | 0.15 | 0.15 | 79 | 1021.1 |
| 20260905142107 | 56 | 263 | 3.5 | 9.6 | 0.00 | 0.15 | 0.15 | 79 | 1021.1 |
| 20260905141613 | 56 | 263 | 4.3 | 11.3 | 0.00 | 0.15 | 0.15 | 79 | 1021.1 |
| 20260905140441 | 56 | 263 | 4.3 | 11.3 | 0.00 | 0.15 | 0.15 | 79 | 1021.1 |
| 20260905134648 | 56 | 263 | 2.6 | 7.8 | 0.00 | 0.16 | 0.15 | 81 | 1021.0 |
| 20260905134129 | 56 | 263 | 2.6 | 8.7 | 0.00 | 0.16 | 0.15 | 81 | 1020.8 |
| 20260905133616 | 56 | 263 | 2.6 | 8.7 | 0.00 | 0.16 | 0.15 | 80 | 1020.8 |
| 20260905133120 | 56 | 263 | 2.6 | 13.0 | 0.00 | 0.16 | 0.15 | 80 | 1020.8 |
| 20260905132004 | 56 | 263 | 5.2 | 13.0 | 0.00 | 0.16 | 0.15 | 79 | 1020.8 |
| 20260905131513 | 56 | 263 | 5.2 | 13.0 | 0.00 | 0.16 | 0.15 | 79 | 1020.8 |
| 20260905130959 | 56 | 263 | 5.2 | 11.3 | 0.00 | 0.16 | 0.15 | 79 | 1020.7 |
| 20260905130458 | 56 | 263 | 4.3 | 11.3 | 0.00 | 0.16 | 0.15 | 79 | 1020.7 |
| 20260905130004 | 56 | 263 | 5.2 | 12.2 | 0.00 | 0.16 | 0.15 | 79 | 1020.7 |
| 20260905125504 | 56 | 263 | 5.2 | 12.2 | 0.00 | 0.16 | 0.15 | 79 | 1020.6 |
| 20260905125005 | 56 | 263 | 4.3 | 12.2 | 0.00 | 0.16 | 0.15 | 80 | 1020.6 |
| 20260905124510 | 56 | 263 | 4.3 | 12.2 | 0.00 | 0.16 | 0.15 | 80 | 1020.6 |
| 20260905124017 | 56 | 263 | 3.5 | 8.7 | 0.00 | 0.16 | 0.15 | 81 | 1020.4 |
| 20260905123521 | 56 | 263 | 3.5 | 8.7 | 0.00 | 0.16 | 0.15 | 81 | 1020.4 |
| 20260905121744 | 56 | 263 | 4.3 | 11.3 | 0.00 | 0.16 | 0.15 | 80 | 1020.2 |
| 20260905121233 | 56 | 263 | 4.3 | 10.4 | 0.00 | 0.16 | 0.15 | 80 | 1020.1 |
| 20260905120741 | 56 | 263 | 3.5 | 12.2 | 0.00 | 0.16 | 0.15 | 80 | 1020.1 |
| 20260905120246 | 56 | 263 | 4.3 | 12.2 | 0.00 | 0.16 | 0.15 | 80 | 1020.1 |
| 20260905115744 | 56 | 263 | 5.2 | 12.2 | 0.00 | 0.16 | 0.15 | 80 | 1020.0 |
| 20260905115241 | 56 | 263 | 5.2 | 12.2 | 0.00 | 0.16 | 0.15 | 80 | 1020.0 |
| 20260905114726 | 56 | 263 | 4.3 | 10.4 | 0.00 | 0.16 | 0.15 | 81 | 1020.0 |
| 20260905114223 | 56 | 263 | 2.6 | 7.8 | 0.00 | 0.16 | 0.15 | 81 | 1019.9 |
| 20260905113720 | 56 | 263 | 2.6 | 7.8 | 0.00 | 0.16 | 0.15 | 81 | 1019.9 |
| 20260905113214 | 56 | 263 | 2.6 | 7.8 | 0.00 | 0.16 | 0.15 | 81 | 1019.9 |
| 20260905112707 | 56 | 263 | 3.5 | 11.3 | 0.00 | 0.16 | 0.15 | 81 | 1019.7 |
| 20260905112149 | 56 | 263 | 4.3 | 11.3 | 0.00 | 0.16 | 0.15 | 81 | 1019.7 |
| 20260905111644 | 56 | 263 | 4.3 | 11.3 | 0.00 | 0.16 | 0.15 | 81 | 1019.7 |
| 20260905111132 | 56 | 263 | 4.3 | 11.3 | 0.00 | 0.16 | 0.15 | 81 | 1019.6 |
| 20260905110641 | 56 | 263 | 3.5 | 10.4 | 0.00 | 0.16 | 0.15 | 81 | 1019.6 |
| 20260905110137 | 56 | 263 | 3.5 | 10.4 | 0.00 | 0.16 | 0.15 | 81 | 1019.6 |
| 20260905105625 | 56 | 263 | 3.5 | 10.4 | 0.00 | 0.16 | 0.15 | 81 | 1019.4 |
| 20260905105109 | 56 | 263 | 4.3 | 10.4 | 0.00 | 0.16 | 0.15 | 81 | 1019.4 |
| 20260905104003 | 56 | 263 | 5.2 | 11.3 | 0.00 | 0.16 | 0.15 | 81 | 1019.2 |
| 20260905103500 | 56 | 263 | 4.3 | 11.3 | 0.00 | 0.16 | 0.15 | 81 | 1019.2 |
| 20260905102944 | 56 | 263 | 5.2 | 13.9 | 0.00 | 0.16 | 0.15 | 81 | 1019.2 |
| 20260905102425 | 56 | 263 | 5.2 | 13.9 | 0.00 | 0.16 | 0.15 | 80 | 1019.1 |
| 20260905101932 | 56 | 263 | 6.1 | 13.9 | 0.00 | 0.16 | 0.15 | 80 | 1019.1 |
| 20260905100751 | 57 | 263 | 5.2 | 11.3 | 0.00 | 0.16 | 0.15 | 80 | 1018.7 |
| 20260905100257 | 56 | 263 | 4.3 | 10.4 | 0.00 | 0.16 | 0.15 | 80 | 1018.7 |
| 20260905095743 | 56 | 263 | 4.3 | 10.4 | 0.00 | 0.16 | 0.15 | 80 | 1018.6 |
| 20260905095238 | 56 | 263 | 5.2 | 10.4 | 0.00 | 0.16 | 0.15 | 80 | 1018.6 |
| 20260905094725 | 56 | 263 | 5.2 | 9.6 | 0.00 | 0.16 | 0.15 | 79 | 1018.6 |
| 20260905094227 | 56 | 263 | 4.3 | 16.5 | 0.00 | 0.16 | 0.15 | 79 | 1018.5 |
| 20260905093719 | 56 | 263 | 4.3 | 16.5 | 0.00 | 0.16 | 0.15 | 78 | 1018.5 |
| 20260905093224 | 57 | 263 | 7.0 | 16.5 | 0.00 | 0.16 | 0.15 | 77 | 1018.5 |
| 20260905092707 | 57 | 263 | 7.0 | 16.5 | 0.00 | 0.16 | 0.15 | 76 | 1018.1 |
| 20260905092205 | 57 | 263 | 6.1 | 12.2 | 0.00 | 0.16 | 0.15 | 75 | 1018.1 |
| 20260905091659 | 57 | 263 | 6.1 | 12.2 | 0.00 | 0.16 | 0.15 | 75 | 1018.1 |
| 20260905091139 | 57 | 263 | 5.2 | 14.8 | 0.00 | 0.16 | 0.15 | 75 | 1018.0 |
| 20260905090636 | 57 | 263 | 5.2 | 14.8 | 0.00 | 0.16 | 0.15 | 75 | 1018.0 |
| 20260905090143 | 57 | 263 | 7.0 | 14.8 | 0.00 | 0.16 | 0.15 | 75 | 1018.0 |
| 20260905084406 | 57 | 263 | 6.1 | 13.0 | 0.00 | 0.16 | 0.15 | 75 | 1017.2 |
| 20260905083854 | 57 | 263 | 6.1 | 15.6 | 0.00 | 0.16 | 0.15 | 74 | 1017.2 |
| 20260905083344 | 58 | 263 | 7.0 | 15.6 | 0.00 | 0.16 | 0.15 | 73 | 1017.2 |
| 20260905082203 | 58 | 263 | 7.8 | 15.6 | 0.00 | 0.16 | 0.15 | 70 | 1016.9 |
| 20260905081644 | 58 | 263 | 7.8 | 20.9 | 0.00 | 0.16 | 0.15 | 70 | 1016.9 |
| 20260905081138 | 58 | 263 | 7.8 | 20.9 | 0.00 | 0.16 | 0.15 | 70 | 1016.4 |
| 20260905080623 | 58 | 263 | 8.7 | 20.9 | 0.00 | 0.16 | 0.15 | 69 | 1016.4 |
| 20260905080126 | 58 | 263 | 9.6 | 20.9 | 0.00 | 0.16 | 0.15 | 69 | 1016.4 |
| 20260905075615 | 58 | 263 | 7.8 | 18.2 | 0.00 | 0.16 | 0.15 | 68 | 1016.1 |
| 20260905074451 | 58 | 263 | 7.8 | 17.4 | 0.00 | 0.16 | 0.15 | 69 | 1016.1 |
| 20260905073935 | 59 | 263 | 6.1 | 14.8 | 0.00 | 0.16 | 0.15 | 69 | 1015.9 |
| 20260905073433 | 59 | 263 | 6.1 | 13.9 | 0.00 | 0.16 | 0.15 | 70 | 1015.9 |
| 20260905072928 | 59 | 263 | 7.0 | 13.9 | 0.00 | 0.16 | 0.15 | 69 | 1015.9 |
| 20260905072434 | 59 | 263 | 7.0 | 13.9 | 0.00 | 0.16 | 0.15 | 68 | 1015.8 |
| 20260905071923 | 59 | 263 | 7.0 | 13.9 | 0.00 | 0.16 | 0.15 | 68 | 1015.8 |
| 20260905071416 | 60 | 263 | 7.0 | 18.2 | 0.00 | 0.16 | 0.15 | 67 | 1015.8 |
| 20260905070903 | 59 | 263 | 7.0 | 18.2 | 0.00 | 0.16 | 0.15 | 67 | 1015.7 |
| 20260905070406 | 59 | 263 | 7.8 | 18.2 | 0.00 | 0.16 | 0.15 | 66 | 1015.7 |
| 20260905065904 | 59 | 263 | 8.7 | 18.2 | 0.00 | 0.16 | 0.15 | 66 | 1015.4 |
| 20260905064755 | 60 | 263 | 8.7 | 17.4 | 0.00 | 0.16 | 0.15 | 66 | 1015.4 |